Content
SEND FEEDBACK

Daily
Averages
Monthly
Summary
United States of America

YELLOWSTONE NATIONAL PARK, WYOMING


Home > North America > United States > Wyoming
Elevation: 7938 feet     Latitude: 44 34N     Longitude: 110 24W

WEATHER
 
SELECT A DAY
Number of Records: 295,577;   Date Range: 1/1/95 - 9/21/14
 
SHARE

PRINT THIS DATA

[ ← Previous Day ]
WEATHER ALMANAC - FEBRUARY 5, 2013
[ Next Day → ]
[ °C ]   °F
Weather ElementAverageHighLow
Temperature25.8 °F34 °F (1:56 pm)17.1 °F (11:56 pm)
Dewpoint19 °F21.9 °F (9:56 am)12 °F (11:56 pm)
Humidity76.4 %92 % (5:56 am)56 % (2:56 pm)
Barometer30.02 in30.12 in (1:56 am)29.93 in (9:56 pm)
Wind Speed1.2 mph5.8 mph (1:56 am)
Wind Gust16.1 mph (12:56 pm)

Weather ElementAverage
Weather ElementTotal
Precipitation0.05 in
Heating Degree Days39.5 (Base 65)
Averaged from 23 records on February 5, 2013
WEATHER CONDITIONS BREAKOUT
WIND DIRECTION BREAKOUT
WEATHER BY HOUR - FEBRUARY 5, 2013
[ °C ]   °F
Local TimeTemperatureDewpointHumidityBarometerVisibilityWind DirectionWind SpeedGust SpeedPrecipitationEventsConditions
1:56 AM23.0 °F19.9 °F88 %30.12 inVariable5.8 mph
2:56 AM24.1 °F19.9 °F84 %30.11 inCalm
3:56 AM24.1 °F19.0 °F81 %30.09 inCalm
4:56 AM23.0 °F19.9 °F88 %30.12 inCalm0.01 in
5:56 AM21.9 °F19.9 °F92 %30.12 inCalm0.02 in
6:56 AM21.9 °F19.9 °F92 %30.10 inCalm0.02 in
7:56 AM23.0 °F19.9 °F88 %30.10 inCalm
8:56 AM24.1 °F21.0 °F88 %30.10 inCalm
9:56 AM26.1 °F21.9 °F84 %30.09 inCalm
10:56 AM28.0 °F21.9 °F78 %30.07 inVariable3.5 mph
11:56 AM30.0 °F21.9 °F72 %30.03 inVariable4.6 mph
12:56 PM30.9 °F19.9 °F64 %30.01 inVariable4.6 mph16.1 mph
1:56 PM34.0 °F21.0 °F59 %29.96 inVariable5.8 mph
2:56 PM32.0 °F18.0 °F56 %29.95 inVariable3.5 mph
3:56 PM32.0 °F18.0 °F56 %29.94 inCalm
4:56 PM30.0 °F18.0 °F61 %29.95 inCalm
5:56 PM28.0 °F19.0 °F69 %29.95 inCalm
6:56 PM27.0 °F19.0 °F72 %29.96 inCalm
7:56 PM26.1 °F19.0 °F75 %29.94 inCalm
8:56 PM24.1 °F17.1 °F75 %29.94 inCalm
9:56 PM23.0 °F16.0 °F74 %29.93 inCalm
10:56 PM19.0 °F14.0 °F81 %29.94 inCalm
11:56 PM17.1 °F12.0 °F81 %29.94 inCalm
Hourly data recorded from KP60, located miles away from Yellowstone National Park, Wyoming







STORIES FROM OUR PARTNERS